Weather in Biaza

Russia / Novosibirsk Oblast     56°35′45″N   78°17′55″E
temp.,
°C
wind,
m/s
gust,
m/s
humid.,
%
clouds,
%
prec.,
mm/h
press.,
hPa
HPBL,
m
28 february, sun
sun2801:00−30ssw239960 0.0 103559
04:00−31s239976 0.0 103441
07:00−31sse239968 0.0 103439
10:00−29se369995 0.0 1032183
13:00−23se369697 0.0 1030274
16:00−20ese4793100 0.0 1028357
19:00−20ese4894100 0.0 1026362
22:00−20ese41095100 0.0 1023376
1 march, mon
mon101:00−21e4997100 0.1 1020248
04:00−20e41097100 0.0 1017279
07:00−18ene51195100 0.4 1014349
10:00−18ene51195100 0.2 1012337
13:00−16ne51094100 0.3 1011389
16:00−14ne5993100 0.1 1010432
19:00−14ne4993100 0.3 1011447
22:00−15ne4994100 0.2 1012410
2 march, tue
tue201:00−17nne379696 0.3 1014238
04:00−19nne249894 0.1 1014113
07:00−20ne129893 0.1 101620
10:00−19ne119796 0.0 101638
13:00−14sse119096 0.1 1016331
16:00−13s1288100 0.1 1015463
19:00−14ssw1295100 0.1 101536
22:00−17s129792 0.0 101620
3 march, wed
wed301:00−18s129894 0.1 101620
04:00−19s129879 0.1 101520
07:00−19sse129878 0.1 101620
10:00−17sse239777 0.1 1016128
13:00−13s349283 0.1 1016415
16:00−12s3692100 0.1 1015492
19:00−14s3895100 0.1 1015318
22:00−15s41196100 0.0 1015343
4 march, thu
thu401:00−16s41094100 0.1 1015405
04:00−14s41094100 0.3 1013435
07:00−13s51194100 0.6 1013446
10:00−10s51193100 0.4 1012512
13:00−7s51193100 0.8 1011549
16:00−5s61094100 0.4 1010646
19:00−5s51194100 0.9 1009696
22:00−4s51294100 0.6 1008672